ACA886 CYYZ-LOWW

Flight info

Callsign ACA886
Flight time 5h 12m
Altitude 39000
Route VERDO7 IPTOS Q921 AGLUK DCT BAREE N581A TUDEP/M085F400 DCT 52N050W 54N040W 55N030W 55N020W DCT DOGAL DCT BEXET/N0493F410 DCT LIFFY DCT DOLAS DCT NAVPI DCT BADGO DCT SWALM DCT GASKA DCT ENITA DCT ETVIS DCT BUDEX BUDEX2W
Aircraft B789/H-SDE1E2E3FGHIJ2J3J4J5M1RWXY/LB1D1

Departure

Time 2026-05-07 14:54
Airport Toronto Pearson International Airport (CYYZ)

Arrival

Time 2026-05-07 20:07
Airport Vienna International Airport (LOWW)
Time Latitude Longitude Altitude Speed Heading
2026-05-07 14:27 43.67695 -79.61420 567 ft 0 kts 91°
2026-05-07 14:45 43.67695 -79.61424 567 ft 3 kts 91°
2026-05-07 14:45 43.67696 -79.61461 567 ft 4 kts 92°
2026-05-07 14:46 43.67697 -79.61498 571 ft 4 kts 98°
2026-05-07 14:46 43.67704 -79.61532 567 ft 4 kts 128°
2026-05-07 14:46 43.67720 -79.61548 573 ft 4 kts 201°
2026-05-07 14:46 43.67729 -79.61540 569 ft 1 kts 226°
2026-05-07 14:47 43.67730 -79.61539 567 ft 0 kts 226°
2026-05-07 14:49 43.67730 -79.61540 575 ft 0 kts 226°
2026-05-07 14:49 43.67723 -79.61550 575 ft 3 kts 226°
2026-05-07 14:50 43.67704 -79.61577 567 ft 5 kts 226°
2026-05-07 14:50 43.67675 -79.61620 569 ft 7 kts 226°
2026-05-07 14:50 43.67637 -79.61667 575 ft 8 kts 219°
2026-05-07 14:50 43.67597 -79.61714 577 ft 7 kts 221°
2026-05-07 14:51 43.67563 -79.61739 577 ft 5 kts 189°
2026-05-07 14:51 43.67518 -79.61712 577 ft 11 kts 143°
2026-05-07 14:51 43.67440 -79.61609 573 ft 20 kts 138°
2026-05-07 14:51 43.67330 -79.61469 569 ft 22 kts 136°
2026-05-07 14:52 43.67232 -79.61342 572 ft 15 kts 137°
2026-05-07 14:52 43.67159 -79.61244 569 ft 12 kts 136°
2026-05-07 14:52 43.67116 -79.61225 568 ft 5 kts 190°
2026-05-07 14:52 43.67091 -79.61245 568 ft 5 kts 216°
2026-05-07 14:53 43.67060 -79.61285 572 ft 7 kts 224°
2026-05-07 14:53 43.67027 -79.61345 574 ft 7 kts 248°
2026-05-07 14:53 43.67038 -79.61398 578 ft 5 kts 305°
2026-05-07 14:53 43.67077 -79.61449 573 ft 11 kts 317°
2026-05-07 14:54 43.67246 -79.61670 576 ft 64 kts 317°
2026-05-07 14:54 43.67736 -79.62310 575 ft 129 kts 317°
2026-05-07 14:54 43.68523 -79.63335 654 ft 175 kts 319°
2026-05-07 14:54 43.69445 -79.64511 1426 ft 184 kts 316°
2026-05-07 14:55 43.70363 -79.65704 2431 ft 179 kts 317°
2026-05-07 14:55 43.71455 -79.66562 3030 ft 193 kts 351°
2026-05-07 14:55 43.72803 -79.66154 3570 ft 209 kts 33°
2026-05-07 14:55 43.73907 -79.64766 4234 ft 222 kts 42°
2026-05-07 14:56 43.75043 -79.63252 4929 ft 233 kts 39°
2026-05-07 14:56 43.76378 -79.61930 5608 ft 246 kts 28°
2026-05-07 14:56 43.77917 -79.60703 6268 ft 258 kts 26°
2026-05-07 14:56 43.79488 -79.59530 7239 ft 263 kts 24°
2026-05-07 14:57 43.81026 -79.58002 7805 ft 285 kts 51°
2026-05-07 14:57 43.81752 -79.55485 8888 ft 285 kts 75°
2026-05-07 14:57 43.81751 -79.52642 9333 ft 305 kts 108°
2026-05-07 14:57 43.80943 -79.49948 10253 ft 306 kts 118°
2026-05-07 14:58 43.79990 -79.47191 10629 ft 330 kts 117°
2026-05-07 14:58 43.79098 -79.44123 10912 ft 357 kts 111°
2026-05-07 14:58 43.78274 -79.40810 11162 ft 381 kts 111°
2026-05-07 14:58 43.77357 -79.37294 11809 ft 389 kts 112°
2026-05-07 14:59 43.76379 -79.33784 12573 ft 396 kts 114°
2026-05-07 14:59 43.75393 -79.30190 13255 ft 404 kts 110°
2026-05-07 14:59 43.74947 -79.26309 13919 ft 414 kts 91°
2026-05-07 14:59 43.75069 -79.22308 14547 ft 421 kts 86°
2026-05-07 15:00 43.75286 -79.18238 15228 ft 427 kts 85°
2026-05-07 15:00 43.75513 -79.14099 15822 ft 435 kts 86°
2026-05-07 15:00 43.75698 -79.09903 16466 ft 440 kts 87°
2026-05-07 15:00 43.75874 -79.05636 17047 ft 447 kts 87°
2026-05-07 15:01 43.76071 -79.01315 17608 ft 454 kts 86°
2026-05-07 15:01 43.76279 -78.96927 18202 ft 460 kts 87°
2026-05-07 15:01 43.76479 -78.92484 18734 ft 466 kts 87°
2026-05-07 15:01 43.76673 -78.87989 19309 ft 471 kts 87°
2026-05-07 15:02 43.76870 -78.83450 19893 ft 475 kts 88°
2026-05-07 15:02 43.77137 -78.78878 20410 ft 480 kts 81°
2026-05-07 15:02 43.78014 -78.74398 20901 ft 484 kts 67°
2026-05-07 15:02 43.79408 -78.70154 21391 ft 487 kts 63°
2026-05-07 15:03 43.80877 -78.65906 21848 ft 492 kts 62°
2026-05-07 15:03 43.83538 -78.58280 22730 ft 498 kts 62°
2026-05-07 15:03 43.87516 -78.46688 23913 ft 509 kts 63°
2026-05-07 15:03 43.93685 -78.28685 25497 ft 524 kts 63°
2026-05-07 15:04 43.99843 -78.10591 26977 ft 538 kts 63°
2026-05-07 15:04 44.06291 -77.91514 28328 ft 552 kts 63°
2026-05-07 15:04 44.12848 -77.71969 29681 ft 564 kts 63°
2026-05-07 15:04 44.19547 -77.51927 30923 ft 575 kts 61°
2026-05-07 15:05 44.29291 -77.34396 32140 ft 577 kts 49°
2026-05-07 15:05 44.39224 -77.16878 33862 ft 571 kts 48°
2026-05-07 15:05 44.49116 -76.99401 35299 ft 572 kts 48°
2026-05-07 15:05 44.58950 -76.81948 36723 ft 570 kts 49°
2026-05-07 15:06 44.68748 -76.64467 38166 ft 566 kts 49°
2026-05-07 15:06 44.78453 -76.47056 38934 ft 570 kts 50°
2026-05-07 15:06 44.95161 -76.10088 38908 ft 564 kts 74°
2026-05-07 15:07 45.05264 -75.68271 38899 ft 562 kts 72°
2026-05-07 15:07 45.15137 -75.26651 38892 ft 561 kts 72°
2026-05-07 15:08 45.25273 -74.84833 38911 ft 559 kts 58°
2026-05-07 15:08 45.35616 -74.68549 38884 ft 556 kts 44°
2026-05-07 15:08 45.46166 -74.52515 38862 ft 554 kts 44°
2026-05-07 15:09 45.67198 -74.20465 38829 ft 551 kts 44°
2026-05-07 15:09 45.88066 -73.88359 38820 ft 549 kts 45°
2026-05-07 15:10 46.08827 -73.56046 38822 ft 548 kts 45°
2026-05-07 15:10 46.28373 -73.22289 38803 ft 549 kts 51°
2026-05-07 15:11 46.46457 -72.86689 38760 ft 548 kts 53°
2026-05-07 15:11 46.64382 -72.50821 38761 ft 548 kts 53°
2026-05-07 15:12 46.82154 -72.14777 38782 ft 548 kts 53°
2026-05-07 15:12 46.99797 -71.78528 38762 ft 545 kts 54°
2026-05-07 15:13 47.17234 -71.42230 38761 ft 543 kts 55°
2026-05-07 15:13 47.34504 -71.05798 38757 ft 542 kts 56°
2026-05-07 15:14 47.51630 -70.69193 38760 ft 541 kts 56°
2026-05-07 15:14 47.68599 -70.32433 38746 ft 539 kts 57°
2026-05-07 15:15 47.85378 -69.95594 38738 ft 537 kts 58°
2026-05-07 15:15 48.02020 -69.58556 38735 ft 539 kts 58°
2026-05-07 15:16 48.17365 -69.20408 38732 ft 532 kts 73°
2026-05-07 15:16 48.28442 -68.79105 38720 ft 534 kts 71°
2026-05-07 15:17 48.39336 -68.37857 38719 ft 535 kts 72°
2026-05-07 15:17 48.50207 -67.95998 38719 ft 536 kts 72°
2026-05-07 15:18 48.60938 -67.53915 38709 ft 536 kts 73°
2026-05-07 15:18 48.71478 -67.11807 38699 ft 534 kts 73°
2026-05-07 15:19 48.81848 -66.69587 38677 ft 534 kts 73°
2026-05-07 15:19 48.92078 -66.27132 38680 ft 536 kts 74°
2026-05-07 15:20 49.02155 -65.84491 38642 ft 535 kts 74°
2026-05-07 15:20 49.12068 -65.41701 38613 ft 534 kts 74°
2026-05-07 15:21 49.21806 -64.98810 38609 ft 534 kts 75°
2026-05-07 15:21 49.31382 -64.55775 38607 ft 534 kts 75°
2026-05-07 15:22 49.40805 -64.12538 38590 ft 534 kts 75°
2026-05-07 15:22 49.50043 -63.69237 38569 ft 533 kts 75°
2026-05-07 15:23 49.59116 -63.25789 38560 ft 533 kts 76°
2026-05-07 15:23 49.68046 -62.82087 38553 ft 535 kts 76°
2026-05-07 15:24 49.76804 -62.38257 38557 ft 533 kts 77°
2026-05-07 15:24 49.85367 -61.94419 38568 ft 531 kts 77°
2026-05-07 15:25 49.93684 -61.50851 38576 ft 530 kts 78°
2026-05-07 15:25 50.01894 -61.06825 38588 ft 530 kts 78°
2026-05-07 15:26 50.09861 -60.63075 38613 ft 523 kts 79°
2026-05-07 15:26 50.17635 -60.19338 38647 ft 523 kts 79°
2026-05-07 15:27 50.25245 -59.75454 38708 ft 523 kts 80°
2026-05-07 15:27 50.32674 -59.31528 38756 ft 522 kts 81°
2026-05-07 15:28 50.39903 -58.87672 38792 ft 518 kts 81°
2026-05-07 15:28 50.46925 -58.43947 38830 ft 517 kts 82°
2026-05-07 15:29 50.53774 -58.00149 38847 ft 516 kts 82°
2026-05-07 15:29 50.60455 -57.56245 38856 ft 516 kts 82°
2026-05-07 15:30 50.66969 -57.12232 38882 ft 516 kts 83°
2026-05-07 15:30 50.73328 -56.68013 38905 ft 517 kts 83°
2026-05-07 15:31 50.79519 -56.23684 38902 ft 516 kts 84°
2026-05-07 15:31 50.85535 -55.79293 38910 ft 516 kts 84°
2026-05-07 15:32 50.91380 -55.34799 38928 ft 516 kts 84°
2026-05-07 15:32 50.97054 -54.90206 38927 ft 516 kts 85°
2026-05-07 15:33 51.02554 -54.45543 38941 ft 515 kts 85°
2026-05-07 15:33 51.07882 -54.00769 38978 ft 516 kts 85°
2026-05-07 15:34 51.13052 -53.55780 38989 ft 517 kts 85°
2026-05-07 15:34 51.19898 -53.11622 39026 ft 528 kts 67°
2026-05-07 15:35 51.31587 -52.68687 39011 ft 528 kts 69°
2026-05-07 15:35 51.43168 -52.25424 38987 ft 529 kts 70°
2026-05-07 15:36 51.54611 -51.81829 38985 ft 530 kts 70°
2026-05-07 15:36 51.65864 -51.38114 38988 ft 527 kts 70°
2026-05-07 15:37 51.76850 -50.94599 39007 ft 521 kts 70°
2026-05-07 15:37 51.87576 -50.51280 39008 ft 516 kts 70°
2026-05-07 15:38 51.98040 -50.08179 39028 ft 513 kts 70°
2026-05-07 15:38 52.08746 -49.65166 39031 ft 514 kts 69°
2026-05-07 15:39 52.19423 -49.21865 39038 ft 517 kts 69°
2026-05-07 15:39 52.29976 -48.78219 39041 ft 516 kts 68°
2026-05-07 15:40 52.40340 -48.34473 39049 ft 514 kts 68°
2026-05-07 15:40 52.50495 -47.90732 39049 ft 513 kts 68°
2026-05-07 15:41 52.60453 -47.46941 39058 ft 511 kts 68°
2026-05-07 15:41 52.70237 -47.03009 39060 ft 509 kts 69°
2026-05-07 15:42 52.79799 -46.59156 39058 ft 506 kts 69°
2026-05-07 15:42 52.89150 -46.15338 39057 ft 504 kts 69°
2026-05-07 15:43 52.98323 -45.71410 39070 ft 502 kts 69°
2026-05-07 15:43 53.07323 -45.27354 39073 ft 504 kts 69°
2026-05-07 15:44 53.16121 -44.83310 39161 ft 504 kts 69°
2026-05-07 15:44 53.24813 -44.38779 39211 ft 506 kts 69°
2026-05-07 15:45 53.33388 -43.93820 39217 ft 509 kts 70°
2026-05-07 15:45 53.41813 -43.48565 39219 ft 508 kts 70°
2026-05-07 15:46 53.54081 -42.80627 39220 ft 505 kts 69°
2026-05-07 15:47 53.62007 -42.35332 39219 ft 505 kts 69°
2026-05-07 15:47 53.69796 -41.89667 39218 ft 508 kts 69°
2026-05-07 15:48 53.77418 -41.43780 39223 ft 506 kts 69°
2026-05-07 15:48 53.84808 -40.98085 39222 ft 501 kts 69°
2026-05-07 15:49 53.91965 -40.52611 39220 ft 497 kts 69°
2026-05-07 15:49 53.98929 -40.07120 39220 ft 497 kts 69°
2026-05-07 15:50 54.05519 -39.61349 39226 ft 499 kts 70°
2026-05-07 15:50 54.11927 -39.15229 39225 ft 501 kts 70°
2026-05-07 15:51 54.18156 -38.68958 39224 ft 499 kts 70°
2026-05-07 15:51 54.24186 -38.22721 39224 ft 497 kts 70°
2026-05-07 15:52 54.30026 -37.76456 39226 ft 497 kts 70°
2026-05-07 15:52 54.34750 -37.37859 39231 ft 499 kts 71°
2026-05-07 15:53 54.39063 -37.01622 39229 ft 499 kts 71°
2026-05-07 15:53 54.40207 -36.91836 39234 ft 499 kts 71°
2026-05-07 15:53 54.40878 -36.86060 39492 ft 498 kts 71°
2026-05-07 15:54 54.41554 -36.80229 39758 ft 498 kts 72°
2026-05-07 15:54 54.42227 -36.74399 40003 ft 498 kts 72°
2026-05-07 15:54 54.42897 -36.68557 40215 ft 499 kts 72°
2026-05-07 15:55 54.44240 -36.56766 40213 ft 503 kts 73°
2026-05-07 15:55 54.45563 -36.45027 40206 ft 499 kts 73°
2026-05-07 15:56 54.46875 -36.33318 40201 ft 498 kts 73°
2026-05-07 15:56 54.48167 -36.21650 40205 ft 497 kts 73°
2026-05-07 15:57 54.49452 -36.09957 40206 ft 498 kts 73°
2026-05-07 15:57 54.50726 -35.98232 40204 ft 499 kts 73°
2026-05-07 15:58 54.51991 -35.86490 40210 ft 499 kts 73°
2026-05-07 15:58 54.53243 -35.74752 40206 ft 498 kts 73°
2026-05-07 15:59 54.54484 -35.63011 40204 ft 499 kts 73°
2026-05-07 15:59 54.55716 -35.51231 40206 ft 501 kts 74°
2026-05-07 16:00 54.56931 -35.39497 40210 ft 501 kts 74°
2026-05-07 16:00 54.58145 -35.27662 40212 ft 502 kts 74°
2026-05-07 16:01 54.59347 -35.15823 40212 ft 500 kts 74°
2026-05-07 16:01 54.60538 -35.03974 40209 ft 502 kts 74°
2026-05-07 16:02 54.61720 -34.92094 40212 ft 503 kts 75°
2026-05-07 16:02 54.62888 -34.80210 40214 ft 502 kts 75°
2026-05-07 16:03 54.64046 -34.68329 40208 ft 501 kts 75°
2026-05-07 16:03 54.65188 -34.56442 40210 ft 502 kts 75°
2026-05-07 16:04 54.66327 -34.44522 40207 ft 504 kts 75°
2026-05-07 16:04 54.67449 -34.32588 40211 ft 504 kts 75°
2026-05-07 16:05 54.68565 -34.20624 40212 ft 503 kts 75°
2026-05-07 16:05 54.69670 -34.08664 40212 ft 504 kts 76°
2026-05-07 16:06 54.70757 -33.96702 40211 ft 503 kts 76°
2026-05-07 16:06 54.71840 -33.84730 40211 ft 504 kts 76°
2026-05-07 16:07 54.72904 -33.72740 40211 ft 504 kts 76°
2026-05-07 16:07 54.73959 -33.60801 40212 ft 506 kts 76°
2026-05-07 16:08 54.75012 -33.48661 40214 ft 507 kts 76°
2026-05-07 16:08 54.76051 -33.36621 40212 ft 505 kts 76°
2026-05-07 16:09 54.77063 -33.24667 40210 ft 506 kts 76°
2026-05-07 16:09 54.78083 -33.12548 40207 ft 506 kts 76°
2026-05-07 16:10 54.79076 -33.00552 40206 ft 506 kts 76°
2026-05-07 16:10 54.80063 -32.88495 40208 ft 506 kts 76°
2026-05-07 16:11 54.81038 -32.76421 40206 ft 506 kts 76°
2026-05-07 16:11 54.82006 -32.64336 40208 ft 506 kts 77°
2026-05-07 16:12 54.82956 -32.52236 40208 ft 506 kts 77°
2026-05-07 16:12 54.83899 -32.40111 40209 ft 507 kts 77°
2026-05-07 16:13 54.84829 -32.28001 40207 ft 507 kts 77°
2026-05-07 16:13 54.85745 -32.15873 40212 ft 506 kts 77°
2026-05-07 16:14 54.86654 -32.03739 40209 ft 507 kts 77°
2026-05-07 16:14 54.87547 -31.91588 40210 ft 508 kts 77°
2026-05-07 16:15 54.88424 -31.79501 40211 ft 507 kts 77°
2026-05-07 16:15 54.89293 -31.67344 40212 ft 507 kts 77°
2026-05-07 16:16 54.90151 -31.55183 40210 ft 507 kts 77°
2026-05-07 16:16 54.90997 -31.43031 40206 ft 506 kts 77°
2026-05-07 16:17 54.91827 -31.30869 40207 ft 507 kts 78°
2026-05-07 16:17 54.92652 -31.18679 40211 ft 508 kts 78°
2026-05-07 16:18 54.93462 -31.06457 40211 ft 509 kts 78°
2026-05-07 16:18 54.94262 -30.94217 40189 ft 509 kts 78°
2026-05-07 16:19 54.95049 -30.81988 40189 ft 508 kts 78°
2026-05-07 16:19 54.95822 -30.69783 40183 ft 507 kts 78°
2026-05-07 16:20 54.96583 -30.57586 40180 ft 507 kts 79°
2026-05-07 16:20 54.97331 -30.45362 40186 ft 508 kts 79°
2026-05-07 16:21 54.98068 -30.33143 40184 ft 507 kts 79°
2026-05-07 16:21 54.98791 -30.20928 40181 ft 507 kts 79°
2026-05-07 16:22 54.99502 -30.08715 40180 ft 507 kts 79°
2026-05-07 16:22 55.00127 -29.96492 40193 ft 508 kts 82°
2026-05-07 16:23 55.00649 -29.84199 40180 ft 510 kts 81°
2026-05-07 16:23 55.01124 -29.71845 40183 ft 511 kts 82°
2026-05-07 16:24 55.01599 -29.59478 40179 ft 512 kts 81°
2026-05-07 16:24 55.02058 -29.47190 40181 ft 511 kts 82°
2026-05-07 16:25 55.02504 -29.34817 40181 ft 512 kts 82°
2026-05-07 16:25 55.02942 -29.22442 40181 ft 511 kts 82°
2026-05-07 16:26 55.03363 -29.10076 40179 ft 511 kts 82°
2026-05-07 16:26 55.03775 -28.97690 40179 ft 512 kts 82°
2026-05-07 16:27 55.04172 -28.85285 40180 ft 512 kts 82°
2026-05-07 16:27 55.04559 -28.72888 40180 ft 513 kts 83°
2026-05-07 16:28 55.04933 -28.60455 40182 ft 514 kts 83°
2026-05-07 16:28 55.05295 -28.48012 40181 ft 514 kts 83°
2026-05-07 16:29 55.05644 -28.35538 40180 ft 515 kts 83°
2026-05-07 16:29 55.05978 -28.23162 40180 ft 514 kts 83°
2026-05-07 16:30 55.06302 -28.10722 40178 ft 512 kts 83°
2026-05-07 16:30 55.06612 -27.98322 40172 ft 511 kts 83°
2026-05-07 16:31 55.06908 -27.85974 40169 ft 513 kts 84°
2026-05-07 16:31 55.07195 -27.73463 40171 ft 514 kts 84°
2026-05-07 16:32 55.07468 -27.60982 40175 ft 515 kts 84°
2026-05-07 16:32 55.07729 -27.48468 40180 ft 516 kts 84°
2026-05-07 16:33 55.07977 -27.35959 40180 ft 515 kts 84°
2026-05-07 16:33 55.08213 -27.23477 40176 ft 514 kts 84°
2026-05-07 16:34 55.08434 -27.11022 40173 ft 513 kts 85°
2026-05-07 16:34 55.08643 -26.98575 40170 ft 513 kts 85°
2026-05-07 16:35 55.08839 -26.86153 40167 ft 512 kts 85°
2026-05-07 16:35 55.09023 -26.73715 40170 ft 513 kts 85°
2026-05-07 16:36 55.09194 -26.61224 40171 ft 516 kts 85°
2026-05-07 16:36 55.09352 -26.48704 40146 ft 515 kts 85°
2026-05-07 16:37 55.09499 -26.36231 40125 ft 514 kts 85°
2026-05-07 16:37 55.09631 -26.23764 40120 ft 513 kts 86°
2026-05-07 16:38 55.09751 -26.11292 40120 ft 514 kts 86°
2026-05-07 16:38 55.09858 -25.98830 40120 ft 513 kts 86°
2026-05-07 16:39 55.09953 -25.86367 40119 ft 514 kts 86°
2026-05-07 16:39 55.10035 -25.73877 40120 ft 515 kts 86°
2026-05-07 16:40 55.10104 -25.61362 40120 ft 516 kts 86°
2026-05-07 16:40 55.10161 -25.48896 40119 ft 518 kts 87°
2026-05-07 16:41 55.10204 -25.36339 40121 ft 516 kts 87°
2026-05-07 16:41 55.10235 -25.23798 40119 ft 516 kts 87°
2026-05-07 16:42 55.10251 -25.13310 40117 ft 516 kts 87°
2026-05-07 16:42 55.10258 -25.00775 40116 ft 516 kts 88°
2026-05-07 16:43 55.10252 -24.88241 40116 ft 516 kts 88°
2026-05-07 16:43 55.10234 -24.75704 40115 ft 516 kts 88°
2026-05-07 16:44 55.10203 -24.63159 40115 ft 517 kts 88°
2026-05-07 16:44 55.10158 -24.50620 40115 ft 517 kts 88°
2026-05-07 16:45 55.10102 -24.38155 40115 ft 517 kts 88°
2026-05-07 16:45 55.10032 -24.25602 40107 ft 518 kts 89°
2026-05-07 16:46 55.09949 -24.13020 40109 ft 518 kts 89°
2026-05-07 16:46 55.09852 -24.00438 40110 ft 518 kts 89°
2026-05-07 16:47 55.09744 -23.87885 40108 ft 517 kts 89°
2026-05-07 16:47 55.09622 -23.75327 40107 ft 517 kts 89°
2026-05-07 16:48 55.09487 -23.62765 40107 ft 518 kts 89°
2026-05-07 16:48 55.09339 -23.50185 40091 ft 519 kts 90°
2026-05-07 16:49 55.09178 -23.37603 40080 ft 517 kts 90°
2026-05-07 16:49 55.09005 -23.25065 40077 ft 516 kts 90°
2026-05-07 16:50 55.08819 -23.12560 40069 ft 515 kts 90°
2026-05-07 16:50 55.08621 -23.00047 40061 ft 516 kts 90°
2026-05-07 16:51 55.08409 -22.87505 40075 ft 517 kts 90°
2026-05-07 16:51 55.08184 -22.74949 40072 ft 518 kts 91°
2026-05-07 16:52 55.07946 -22.62414 40063 ft 516 kts 91°
2026-05-07 16:52 55.07696 -22.49896 40075 ft 516 kts 91°
2026-05-07 16:53 55.07433 -22.37405 40072 ft 515 kts 91°
2026-05-07 16:53 55.07158 -22.24908 40059 ft 516 kts 91°
2026-05-07 16:54 55.06869 -22.12391 40069 ft 517 kts 91°
2026-05-07 16:54 55.06567 -21.99848 40063 ft 518 kts 91°
2026-05-07 16:55 55.06251 -21.87294 40075 ft 518 kts 92°
2026-05-07 16:55 55.05924 -21.74802 40072 ft 519 kts 92°
2026-05-07 16:56 55.05582 -21.62209 40066 ft 520 kts 92°
2026-05-07 16:56 55.05045 -21.43379 40063 ft 516 kts 92°
2026-05-07 16:57 55.04674 -21.30902 40060 ft 515 kts 92°
2026-05-07 16:57 55.04290 -21.18431 40061 ft 515 kts 92°
2026-05-07 16:58 55.03892 -21.05950 40048 ft 515 kts 93°
2026-05-07 16:58 55.03482 -20.93474 40051 ft 515 kts 93°
2026-05-07 16:59 55.03060 -20.81006 40056 ft 515 kts 93°
2026-05-07 16:59 55.02624 -20.68539 40056 ft 515 kts 93°
2026-05-07 17:00 55.02176 -20.56081 40058 ft 515 kts 93°
2026-05-07 17:00 55.01716 -20.43621 40050 ft 515 kts 94°
2026-05-07 17:01 55.01242 -20.31155 40056 ft 517 kts 94°
2026-05-07 17:01 55.00753 -20.18643 40038 ft 519 kts 94°
2026-05-07 17:02 55.00250 -20.06096 40033 ft 518 kts 94°
2026-05-07 17:02 54.98933 -19.93829 40039 ft 516 kts 107°
2026-05-07 17:03 54.96810 -19.81876 40023 ft 517 kts 108°
2026-05-07 17:03 54.94697 -19.69915 40029 ft 517 kts 108°
2026-05-07 17:04 54.92565 -19.57975 40028 ft 516 kts 108°
2026-05-07 17:04 54.90441 -19.46147 40028 ft 516 kts 108°
2026-05-07 17:05 54.88294 -19.34260 40028 ft 516 kts 108°
2026-05-07 17:05 54.86133 -19.22391 40027 ft 515 kts 108°
2026-05-07 17:06 54.83967 -19.10556 40027 ft 515 kts 109°
2026-05-07 17:06 54.81788 -18.98733 40022 ft 514 kts 109°
2026-05-07 17:07 54.79602 -18.86939 40024 ft 514 kts 109°
2026-05-07 17:07 54.77403 -18.75156 40024 ft 514 kts 109°
2026-05-07 17:08 54.75188 -18.63359 40018 ft 516 kts 109°
2026-05-07 17:08 54.72955 -18.51539 40018 ft 518 kts 109°
2026-05-07 17:09 54.70703 -18.39696 40017 ft 517 kts 109°
2026-05-07 17:09 54.68448 -18.27902 39960 ft 517 kts 110°
2026-05-07 17:10 54.66185 -18.16157 39955 ft 514 kts 110°
2026-05-07 17:10 54.63921 -18.04458 39949 ft 514 kts 110°
2026-05-07 17:11 54.61640 -17.92761 39950 ft 515 kts 110°
2026-05-07 17:11 54.59347 -17.81053 39954 ft 516 kts 110°
2026-05-07 17:12 54.57034 -17.69331 39960 ft 517 kts 110°
2026-05-07 17:12 54.54710 -17.57612 39959 ft 517 kts 110°
2026-05-07 17:13 54.52374 -17.45917 39954 ft 516 kts 111°
2026-05-07 17:13 54.50046 -17.34323 39947 ft 515 kts 111°
2026-05-07 17:14 54.47701 -17.22706 39946 ft 514 kts 111°
2026-05-07 17:14 54.45345 -17.11114 39942 ft 512 kts 111°
2026-05-07 17:15 54.42984 -16.99563 39941 ft 513 kts 111°
2026-05-07 17:15 54.40608 -16.88003 39942 ft 513 kts 111°
2026-05-07 17:16 54.38221 -16.76455 39943 ft 513 kts 111°
2026-05-07 17:16 54.35821 -16.64911 39944 ft 514 kts 111°
2026-05-07 17:17 54.33408 -16.53382 39945 ft 514 kts 112°
2026-05-07 17:17 54.30990 -16.41876 39946 ft 513 kts 112°
2026-05-07 17:18 54.28560 -16.30395 39944 ft 513 kts 112°
2026-05-07 17:18 54.26120 -16.18927 39945 ft 514 kts 112°
2026-05-07 17:19 54.23664 -16.07444 39944 ft 513 kts 112°
2026-05-07 17:19 54.21202 -15.96003 39946 ft 513 kts 112°
2026-05-07 17:20 54.18726 -15.84557 39945 ft 513 kts 112°
2026-05-07 17:20 54.16242 -15.73140 39946 ft 512 kts 112°
2026-05-07 17:21 54.13748 -15.61741 39947 ft 513 kts 112°
2026-05-07 17:21 54.11242 -15.50352 39946 ft 513 kts 113°
2026-05-07 17:22 54.08726 -15.38974 39943 ft 513 kts 113°
2026-05-07 17:22 54.06219 -15.27704 39944 ft 512 kts 113°
2026-05-07 17:23 54.03690 -15.16389 39941 ft 511 kts 113°
2026-05-07 17:23 54.01159 -15.05114 39940 ft 509 kts 111°
2026-05-07 17:24 54.00271 -14.99282 39962 ft 511 kts 99°
2026-05-07 17:24 54.00036 -14.93231 40133 ft 515 kts 91°
2026-05-07 17:24 54.00032 -14.87150 40373 ft 516 kts 91°
2026-05-07 17:24 54.00057 -14.81049 40641 ft 516 kts 91°
2026-05-07 17:25 54.00087 -14.74950 40907 ft 516 kts 91°
2026-05-07 17:25 54.00097 -14.68812 40937 ft 522 kts 91°
2026-05-07 17:25 54.00099 -14.56504 40932 ft 518 kts 91°
2026-05-07 17:26 54.00107 -14.44302 40926 ft 515 kts 91°
2026-05-07 17:26 54.00090 -14.32168 40926 ft 512 kts 91°
2026-05-07 17:27 54.00069 -14.20058 40927 ft 513 kts 91°
2026-05-07 17:27 54.00031 -14.07915 40928 ft 514 kts 91°
2026-05-07 17:28 53.99868 -13.95766 40943 ft 514 kts 94°
2026-05-07 17:28 53.99631 -13.85670 40945 ft 515 kts 93°
2026-05-07 17:29 53.99305 -13.73510 40944 ft 515 kts 94°
2026-05-07 17:29 53.98958 -13.61365 40942 ft 515 kts 94°
2026-05-07 17:30 53.98612 -13.49211 40943 ft 515 kts 94°
2026-05-07 17:30 53.98242 -13.37069 40943 ft 515 kts 94°
2026-05-07 17:31 53.97869 -13.24930 40943 ft 514 kts 94°
2026-05-07 17:31 53.97477 -13.12798 40943 ft 514 kts 94°
2026-05-07 17:32 53.97078 -13.00672 40944 ft 514 kts 95°
2026-05-07 17:32 53.96667 -12.88645 40944 ft 514 kts 95°
2026-05-07 17:33 53.96243 -12.76541 40929 ft 513 kts 95°
2026-05-07 17:33 53.95806 -12.64459 40929 ft 512 kts 95°
2026-05-07 17:34 53.95358 -12.52392 40925 ft 511 kts 95°
2026-05-07 17:34 53.94900 -12.40361 40924 ft 511 kts 95°
2026-05-07 17:35 53.94427 -12.28331 40922 ft 510 kts 95°
2026-05-07 17:35 53.93947 -12.16315 40921 ft 510 kts 95°
2026-05-07 17:36 53.93452 -12.04317 40918 ft 509 kts 95°
2026-05-07 17:36 53.92948 -11.92343 40917 ft 509 kts 96°
2026-05-07 17:37 53.92430 -11.80369 40921 ft 510 kts 96°
2026-05-07 17:37 53.91900 -11.68345 40927 ft 512 kts 96°
2026-05-07 17:38 53.91354 -11.56271 40935 ft 514 kts 96°
2026-05-07 17:38 53.90797 -11.44203 40934 ft 513 kts 96°
2026-05-07 17:39 53.90229 -11.32174 40933 ft 510 kts 96°
2026-05-07 17:39 53.89653 -11.20214 40927 ft 509 kts 96°
2026-05-07 17:40 53.89063 -11.08249 40926 ft 509 kts 96°
2026-05-07 17:40 53.88462 -10.96284 40927 ft 509 kts 96°
2026-05-07 17:41 53.87853 -10.84403 40928 ft 509 kts 97°
2026-05-07 17:41 53.87230 -10.72464 40928 ft 508 kts 97°
2026-05-07 17:42 53.86595 -10.60543 40926 ft 507 kts 97°
2026-05-07 17:42 53.85949 -10.48632 40925 ft 508 kts 97°
2026-05-07 17:43 53.85290 -10.36711 40927 ft 508 kts 97°
2026-05-07 17:43 53.84619 -10.24798 40929 ft 508 kts 97°
2026-05-07 17:44 53.83937 -10.12883 40931 ft 508 kts 97°
2026-05-07 17:44 53.83243 -10.00979 40931 ft 508 kts 97°
2026-05-07 17:45 53.82538 -9.89085 40930 ft 508 kts 98°
2026-05-07 17:45 53.81821 -9.77202 40930 ft 507 kts 98°
2026-05-07 17:46 53.81093 -9.65327 40929 ft 507 kts 98°
2026-05-07 17:46 53.80353 -9.53465 40923 ft 507 kts 98°
2026-05-07 17:47 53.79607 -9.41684 40922 ft 506 kts 98°
2026-05-07 17:47 53.78846 -9.29856 40921 ft 505 kts 98°
2026-05-07 17:48 53.78076 -9.18070 40917 ft 504 kts 98°
2026-05-07 17:48 53.77294 -9.06289 40918 ft 504 kts 98°
2026-05-07 17:49 53.76502 -8.94519 40918 ft 504 kts 98°
2026-05-07 17:49 53.75698 -8.82761 40920 ft 504 kts 98°
2026-05-07 17:50 53.74882 -8.70993 40922 ft 504 kts 98°
2026-05-07 17:50 53.74055 -8.59242 40924 ft 504 kts 99°
2026-05-07 17:51 53.73217 -8.47513 40924 ft 503 kts 99°
2026-05-07 17:51 53.72369 -8.35793 40922 ft 502 kts 99°
2026-05-07 17:52 53.71510 -8.24092 40922 ft 503 kts 99°
2026-05-07 17:52 53.70638 -8.12364 40926 ft 505 kts 99°
2026-05-07 17:53 53.69751 -8.00595 40931 ft 505 kts 99°
2026-05-07 17:53 53.68854 -7.88861 40934 ft 504 kts 99°
2026-05-07 17:54 53.67947 -7.77146 40931 ft 503 kts 99°
2026-05-07 17:54 53.67031 -7.65462 40929 ft 502 kts 99°
2026-05-07 17:55 53.66104 -7.53799 40928 ft 502 kts 99°
2026-05-07 17:55 53.65168 -7.42156 40930 ft 500 kts 99°
2026-05-07 17:56 53.64220 -7.30531 40928 ft 501 kts 99°
2026-05-07 17:56 53.63268 -7.18980 40930 ft 501 kts 100°
2026-05-07 17:57 53.62456 -7.09239 40931 ft 501 kts 100°
2026-05-07 17:57 53.61317 -6.95741 40931 ft 501 kts 100°
2026-05-07 17:58 53.60326 -6.84146 40931 ft 500 kts 100°
2026-05-07 17:58 53.59326 -6.72575 40930 ft 499 kts 100°
2026-05-07 17:59 53.58316 -6.61033 40927 ft 498 kts 100°
2026-05-07 17:59 53.57295 -6.49497 40927 ft 499 kts 100°
2026-05-07 18:00 53.56262 -6.37954 40930 ft 499 kts 101°
2026-05-07 18:00 53.55217 -6.26403 40934 ft 500 kts 101°
2026-05-07 18:01 53.54160 -6.14854 40942 ft 499 kts 101°
2026-05-07 18:01 53.53093 -6.03323 40942 ft 499 kts 101°
2026-05-07 18:02 53.51475 -5.86066 40940 ft 499 kts 101°
2026-05-07 18:03 53.50389 -5.74639 40941 ft 499 kts 101°
2026-05-07 18:03 53.49285 -5.63148 40951 ft 498 kts 101°
2026-05-07 18:04 53.48171 -5.51659 40950 ft 498 kts 101°
2026-05-07 18:04 53.47518 -5.40085 40971 ft 499 kts 96°
2026-05-07 18:05 53.46927 -5.28447 40971 ft 501 kts 96°
2026-05-07 18:05 53.46327 -5.16791 40975 ft 501 kts 96°
2026-05-07 18:06 53.45715 -5.05151 40978 ft 501 kts 96°
2026-05-07 18:06 53.45093 -4.93522 40977 ft 500 kts 97°
2026-05-07 18:07 53.44460 -4.81914 40976 ft 500 kts 97°
2026-05-07 18:07 53.43816 -4.70318 40988 ft 499 kts 97°
2026-05-07 18:08 53.43167 -4.58816 40985 ft 498 kts 97°
2026-05-07 18:08 53.42502 -4.47263 40983 ft 497 kts 97°
2026-05-07 18:09 53.41829 -4.35738 40980 ft 496 kts 97°
2026-05-07 18:09 53.41144 -4.24215 40985 ft 497 kts 97°
2026-05-07 18:10 53.40446 -4.12662 40989 ft 498 kts 97°
2026-05-07 18:10 53.39736 -4.01096 40991 ft 499 kts 97°
2026-05-07 18:11 53.39014 -3.89531 40994 ft 499 kts 97°
2026-05-07 18:11 53.38281 -3.77966 40995 ft 499 kts 97°
2026-05-07 18:12 53.37536 -3.66393 40997 ft 500 kts 97°
2026-05-07 18:12 53.36781 -3.54827 40997 ft 500 kts 97°
2026-05-07 18:13 53.36018 -3.43335 40998 ft 500 kts 98°
2026-05-07 18:13 53.35238 -3.31747 40999 ft 502 kts 98°
2026-05-07 18:14 53.34445 -3.20145 41008 ft 501 kts 98°
2026-05-07 18:14 53.33643 -3.08574 41002 ft 500 kts 98°
2026-05-07 18:15 53.32831 -2.97020 41012 ft 500 kts 98°
2026-05-07 18:15 53.32008 -2.85478 41016 ft 500 kts 98°
2026-05-07 18:16 53.31173 -2.73931 41018 ft 500 kts 98°
2026-05-07 18:16 53.30327 -2.62382 41013 ft 500 kts 98°
2026-05-07 18:17 53.29470 -2.50849 41019 ft 500 kts 98°
2026-05-07 18:17 53.28602 -2.39320 41016 ft 500 kts 98°
2026-05-07 18:18 53.27724 -2.27805 41013 ft 499 kts 99°
2026-05-07 18:18 53.26835 -2.16304 41013 ft 499 kts 99°
2026-05-07 18:19 53.25936 -2.04821 41009 ft 498 kts 99°
2026-05-07 18:19 53.25181 -1.95286 41015 ft 498 kts 99°
2026-05-07 18:20 53.24263 -1.83820 41013 ft 498 kts 99°
2026-05-07 18:20 53.23180 -1.70472 41010 ft 500 kts 99°
2026-05-07 18:21 53.22389 -1.60843 41017 ft 500 kts 99°
2026-05-07 18:21 53.21433 -1.49335 41026 ft 501 kts 99°
2026-05-07 18:22 53.20464 -1.37815 41030 ft 502 kts 99°
2026-05-07 18:22 53.19484 -1.26295 41032 ft 501 kts 99°
2026-05-07 18:23 53.18496 -1.14817 41028 ft 500 kts 99°
2026-05-07 18:23 53.17498 -1.03362 41038 ft 499 kts 100°
2026-05-07 18:24 53.16492 -0.91942 41048 ft 499 kts 100°
2026-05-07 18:24 53.15473 -0.80498 41062 ft 500 kts 100°
2026-05-07 18:25 53.14440 -0.69034 41072 ft 501 kts 100°
2026-05-07 18:25 53.13394 -0.57548 41074 ft 502 kts 100°
2026-05-07 18:26 53.12335 -0.46046 41059 ft 501 kts 100°
2026-05-07 18:26 53.11269 -0.34590 41049 ft 500 kts 100°
2026-05-07 18:27 53.10193 -0.23166 41046 ft 500 kts 100°
2026-05-07 18:27 53.09108 -0.11750 41048 ft 499 kts 101°
2026-05-07 18:28 53.08013 -0.00359 41041 ft 499 kts 101°
2026-05-07 18:28 53.06915 0.10949 41041 ft 498 kts 101°
2026-05-07 18:29 53.05801 0.22296 41053 ft 497 kts 101°
2026-05-07 18:29 53.04676 0.33651 41051 ft 499 kts 101°
2026-05-07 18:30 53.03535 0.45040 41056 ft 501 kts 101°
2026-05-07 18:30 53.02381 0.56457 41062 ft 501 kts 101°
2026-05-07 18:31 53.01217 0.67848 41069 ft 500 kts 101°
2026-05-07 18:31 53.00046 0.79209 41077 ft 499 kts 101°
2026-05-07 18:32 52.98865 0.90540 41077 ft 498 kts 101°
2026-05-07 18:32 52.97477 1.01763 41100 ft 494 kts 112°
2026-05-07 18:33 52.95075 1.12491 41105 ft 498 kts 112°
2026-05-07 18:33 52.92628 1.23247 41099 ft 499 kts 112°
2026-05-07 18:34 52.90187 1.34002 41099 ft 498 kts 112°
2026-05-07 18:34 52.87726 1.44735 41107 ft 498 kts 112°
2026-05-07 18:35 52.85265 1.55451 41105 ft 498 kts 112°
2026-05-07 18:35 52.82806 1.66083 41107 ft 498 kts 112°
2026-05-07 18:36 52.80324 1.76774 41103 ft 498 kts 112°
2026-05-07 18:36 52.77831 1.87451 41101 ft 498 kts 112°
2026-05-07 18:37 52.75331 1.98106 41099 ft 497 kts 112°
2026-05-07 18:37 52.72824 2.08741 41094 ft 497 kts 113°
2026-05-07 18:38 52.70309 2.19354 41092 ft 497 kts 113°
2026-05-07 18:38 52.67786 2.29953 41086 ft 496 kts 113°
2026-05-07 18:39 52.65255 2.40530 41094 ft 496 kts 113°
2026-05-07 18:39 52.62717 2.51085 41096 ft 496 kts 113°
2026-05-07 18:40 52.60169 2.61627 41095 ft 496 kts 113°
2026-05-07 18:40 52.57614 2.72151 41092 ft 495 kts 113°
2026-05-07 18:41 52.55046 2.82677 41090 ft 498 kts 114°
2026-05-07 18:41 52.52501 2.93278 41102 ft 500 kts 112°
2026-05-07 18:42 52.49986 3.03840 41103 ft 499 kts 113°
2026-05-07 18:42 52.47427 3.14418 41103 ft 499 kts 113°
2026-05-07 18:43 52.44878 3.24984 41099 ft 498 kts 113°
2026-05-07 18:43 52.42313 3.35511 41098 ft 497 kts 113°
2026-05-07 18:44 52.39749 3.46017 41102 ft 497 kts 113°
2026-05-07 18:44 52.37171 3.56514 41095 ft 497 kts 114°
2026-05-07 18:45 52.34583 3.67010 41097 ft 498 kts 114°
2026-05-07 18:45 52.31978 3.77517 41102 ft 499 kts 114°
2026-05-07 18:46 52.29357 3.88044 41098 ft 501 kts 114°
2026-05-07 18:46 52.26721 3.98579 41090 ft 500 kts 114°
2026-05-07 18:47 52.24087 4.09056 41088 ft 498 kts 114°
2026-05-07 18:47 52.21451 4.19494 41082 ft 497 kts 114°
2026-05-07 18:48 52.18806 4.29916 41081 ft 497 kts 114°
2026-05-07 18:48 52.16150 4.40334 41083 ft 498 kts 114°
2026-05-07 18:49 52.13481 4.50755 41087 ft 499 kts 114°
2026-05-07 18:49 52.10801 4.61170 41085 ft 500 kts 114°
2026-05-07 18:50 52.08156 4.71403 41086 ft 500 kts 115°
2026-05-07 18:50 52.05467 4.81759 41083 ft 501 kts 115°
2026-05-07 18:51 52.02748 4.92179 41082 ft 501 kts 115°
2026-05-07 18:51 52.00037 5.02523 41081 ft 501 kts 115°
2026-05-07 18:52 51.97302 5.12913 41080 ft 501 kts 115°
2026-05-07 18:52 51.94586 5.23183 41081 ft 503 kts 115°
2026-05-07 18:53 51.91789 5.33711 41080 ft 502 kts 115°
2026-05-07 18:53 51.89024 5.44072 41078 ft 501 kts 115°
2026-05-07 18:54 51.86253 5.54407 41072 ft 500 kts 115°
2026-05-07 18:54 51.83479 5.64707 41071 ft 499 kts 115°
2026-05-07 18:55 51.80705 5.74963 41067 ft 498 kts 115°
2026-05-07 18:55 51.77915 5.85230 41068 ft 500 kts 115°
2026-05-07 18:56 51.75108 5.95516 41070 ft 501 kts 115°
2026-05-07 18:56 51.72286 6.05811 41074 ft 503 kts 115°
2026-05-07 18:57 51.69452 6.16103 41082 ft 502 kts 116°
2026-05-07 18:57 51.66616 6.26360 41080 ft 500 kts 116°
2026-05-07 18:58 51.63775 6.36587 41072 ft 500 kts 116°
2026-05-07 18:58 51.60927 6.46794 41072 ft 500 kts 116°
2026-05-07 18:59 51.58064 6.57010 41069 ft 501 kts 116°
2026-05-07 18:59 51.55190 6.67224 41072 ft 502 kts 116°
2026-05-07 19:00 51.52790 6.75715 41077 ft 502 kts 116°
2026-05-07 19:00 51.49423 6.87581 41081 ft 503 kts 116°
2026-05-07 19:01 51.46511 6.97793 41084 ft 504 kts 116°
2026-05-07 19:01 51.43587 7.08007 41083 ft 504 kts 116°
2026-05-07 19:02 51.40664 7.18170 41079 ft 502 kts 116°
2026-05-07 19:02 51.37748 7.28266 41076 ft 501 kts 117°
2026-05-07 19:03 51.34815 7.38376 41070 ft 500 kts 117°
2026-05-07 19:03 51.31882 7.48445 41069 ft 499 kts 117°
2026-05-07 19:04 51.28958 7.58443 41066 ft 500 kts 117°
2026-05-07 19:04 51.26006 7.68494 41070 ft 501 kts 117°
2026-05-07 19:05 51.23039 7.78553 41083 ft 502 kts 117°
2026-05-07 19:05 51.20053 7.88633 41087 ft 503 kts 117°
2026-05-07 19:06 51.17060 7.98696 41081 ft 502 kts 117°
2026-05-07 19:06 51.12556 8.13759 41083 ft 502 kts 117°
2026-05-07 19:07 51.09526 8.23739 41081 ft 500 kts 122°
2026-05-07 19:07 51.05914 8.33184 41092 ft 500 kts 123°
2026-05-07 19:08 51.02889 8.41023 41091 ft 501 kts 123°
2026-05-07 19:08 50.99286 8.50359 41088 ft 501 kts 123°
2026-05-07 19:09 50.95632 8.59765 41094 ft 501 kts 123°
2026-05-07 19:09 50.91973 8.69166 41092 ft 501 kts 123°
2026-05-07 19:10 50.88299 8.78562 41089 ft 502 kts 124°
2026-05-07 19:10 50.84616 8.87952 41091 ft 502 kts 124°
2026-05-07 19:11 50.80923 8.97332 41091 ft 503 kts 124°
2026-05-07 19:11 50.77223 9.06696 41100 ft 502 kts 124°
2026-05-07 19:12 50.73524 9.16025 41094 ft 501 kts 124°
2026-05-07 19:12 50.70056 9.25556 41091 ft 502 kts 120°
2026-05-07 19:13 50.66793 9.35304 41093 ft 503 kts 120°
2026-05-07 19:13 50.63518 9.45056 41104 ft 504 kts 120°
2026-05-07 19:14 50.60232 9.54804 41106 ft 505 kts 120°
2026-05-07 19:14 50.56927 9.64569 41092 ft 506 kts 120°
2026-05-07 19:15 50.53617 9.74314 41092 ft 505 kts 120°
2026-05-07 19:15 50.50322 9.83973 41085 ft 505 kts 120°
2026-05-07 19:16 50.46982 9.93730 41084 ft 505 kts 120°
2026-05-07 19:16 50.43657 10.03404 41080 ft 505 kts 120°
2026-05-07 19:17 50.40339 10.13023 41082 ft 505 kts 120°
2026-05-07 19:17 50.36966 10.22760 41083 ft 505 kts 120°
2026-05-07 19:18 50.33865 10.32548 41079 ft 506 kts 116°
2026-05-07 19:18 50.31012 10.42621 41080 ft 507 kts 116°
2026-05-07 19:19 50.28138 10.52689 41084 ft 506 kts 116°
2026-05-07 19:19 50.25267 10.62729 41082 ft 506 kts 116°
2026-05-07 19:20 50.22388 10.72740 41080 ft 505 kts 116°
2026-05-07 19:20 50.19504 10.82732 41079 ft 504 kts 116°
2026-05-07 19:21 50.16619 10.92683 41074 ft 503 kts 116°
2026-05-07 19:21 50.13748 11.02549 41072 ft 502 kts 116°
2026-05-07 19:22 50.10848 11.12470 41062 ft 503 kts 116°
2026-05-07 19:22 50.07936 11.22390 41063 ft 504 kts 116°
2026-05-07 19:23 50.05016 11.32301 41064 ft 504 kts 117°
2026-05-07 19:23 50.02083 11.42212 41050 ft 504 kts 117°
2026-05-07 19:24 49.99162 11.52042 41053 ft 504 kts 117°
2026-05-07 19:24 49.96214 11.61925 41053 ft 504 kts 117°
2026-05-07 19:25 49.93257 11.71798 41052 ft 504 kts 117°
2026-05-07 19:25 49.90294 11.81650 41043 ft 504 kts 117°
2026-05-07 19:26 49.87326 11.91477 41039 ft 503 kts 117°
2026-05-07 19:26 49.84353 12.01285 41032 ft 502 kts 117°
2026-05-07 19:27 49.81377 12.11062 41025 ft 501 kts 117°
2026-05-07 19:27 49.78393 12.20824 41029 ft 502 kts 117°
2026-05-07 19:28 49.75394 12.30597 41033 ft 504 kts 118°
2026-05-07 19:28 49.72374 12.40399 41039 ft 506 kts 118°
2026-05-07 19:29 49.69786 12.50491 41058 ft 508 kts 104°
2026-05-07 19:29 49.68284 12.61174 41048 ft 509 kts 104°
2026-05-07 19:30 49.66789 12.71862 41045 ft 509 kts 104°
2026-05-07 19:30 49.64809 12.82294 41067 ft 505 kts 119°
2026-05-07 19:31 49.61047 12.91364 41058 ft 502 kts 128°
2026-05-07 19:31 49.57028 13.00168 41057 ft 502 kts 128°
2026-05-07 19:32 49.53054 13.08921 41058 ft 502 kts 128°
2026-05-07 19:32 49.49037 13.17703 41056 ft 502 kts 128°
2026-05-07 19:33 49.45018 13.26474 41055 ft 502 kts 128°
2026-05-07 19:33 49.40995 13.35221 41056 ft 501 kts 128°
2026-05-07 19:34 49.36968 13.43949 41055 ft 500 kts 128°
2026-05-07 19:34 49.32944 13.52643 41054 ft 500 kts 128°
2026-05-07 19:35 49.28927 13.61294 40308 ft 499 kts 128°
2026-05-07 19:35 49.26906 13.65632 39587 ft 500 kts 128°
2026-05-07 19:35 49.24890 13.69956 38958 ft 498 kts 129°
2026-05-07 19:36 49.22878 13.74265 38287 ft 496 kts 129°
2026-05-07 19:36 49.20875 13.78549 37585 ft 495 kts 129°
2026-05-07 19:36 49.18871 13.82823 36882 ft 493 kts 129°
2026-05-07 19:36 49.16877 13.87074 36158 ft 491 kts 129°
2026-05-07 19:37 49.14884 13.91314 35317 ft 491 kts 129°
2026-05-07 19:37 49.12887 13.95554 34521 ft 491 kts 129°
2026-05-07 19:37 49.10897 13.99772 33721 ft 489 kts 129°
2026-05-07 19:37 49.08910 14.03988 32898 ft 488 kts 129°
2026-05-07 19:38 49.06928 14.08177 32023 ft 486 kts 130°
2026-05-07 19:38 49.04953 14.12341 31118 ft 483 kts 130°
2026-05-07 19:38 49.02989 14.16479 30175 ft 481 kts 130°
2026-05-07 19:38 49.01035 14.20593 29238 ft 477 kts 130°
2026-05-07 19:39 48.99097 14.24666 28322 ft 473 kts 130°
2026-05-07 19:39 48.97169 14.28710 27416 ft 469 kts 130°
2026-05-07 19:39 48.95263 14.32703 26526 ft 465 kts 129°
2026-05-07 19:39 48.93310 14.36539 26069 ft 450 kts 131°
2026-05-07 19:40 48.91437 14.40292 25750 ft 444 kts 130°
2026-05-07 19:40 48.89577 14.44073 25418 ft 449 kts 130°
2026-05-07 19:40 48.87680 14.47824 25083 ft 446 kts 131°
2026-05-07 19:40 48.85774 14.51543 24751 ft 446 kts 131°
2026-05-07 19:41 48.83881 14.55274 24413 ft 445 kts 131°
2026-05-07 19:41 48.82005 14.58998 24067 ft 443 kts 130°
2026-05-07 19:41 48.80131 14.62694 23738 ft 440 kts 131°
2026-05-07 19:41 48.78258 14.66363 23403 ft 439 kts 131°
2026-05-07 19:42 48.76394 14.70019 23067 ft 438 kts 130°
2026-05-07 19:42 48.74537 14.73669 22731 ft 435 kts 131°
2026-05-07 19:42 48.72688 14.77292 22407 ft 434 kts 131°
2026-05-07 19:42 48.70843 14.80892 22079 ft 432 kts 131°
2026-05-07 19:43 48.69002 14.84480 21745 ft 431 kts 131°
2026-05-07 19:43 48.67193 14.88007 21414 ft 429 kts 131°
2026-05-07 19:43 48.65368 14.91561 21102 ft 427 kts 131°
2026-05-07 19:43 48.63542 14.95107 20770 ft 426 kts 131°
2026-05-07 19:44 48.61727 14.98629 20454 ft 424 kts 131°
2026-05-07 19:44 48.59959 15.02193 20126 ft 424 kts 126°
2026-05-07 19:44 48.58635 15.06191 19813 ft 428 kts 114°
2026-05-07 19:44 48.57801 15.10509 19497 ft 428 kts 108°
2026-05-07 19:45 48.57046 15.14848 19175 ft 427 kts 107°
2026-05-07 19:45 48.56309 15.19184 18853 ft 426 kts 107°
2026-05-07 19:45 48.55569 15.23502 18530 ft 424 kts 107°
2026-05-07 19:45 48.54821 15.27797 18211 ft 422 kts 108°
2026-05-07 19:46 48.54077 15.32063 17888 ft 420 kts 107°
2026-05-07 19:46 48.53338 15.36321 17570 ft 418 kts 107°
2026-05-07 19:46 48.52602 15.40550 17254 ft 416 kts 107°
2026-05-07 19:46 48.51967 15.44766 16930 ft 416 kts 99°
2026-05-07 19:47 48.51746 15.49078 16629 ft 415 kts 97°
2026-05-07 19:47 48.51490 15.53405 16315 ft 412 kts 97°
2026-05-07 19:47 48.51234 15.57697 16006 ft 410 kts 97°
2026-05-07 19:47 48.50995 15.61975 15704 ft 408 kts 96°
2026-05-07 19:48 48.50761 15.66230 15392 ft 406 kts 96°
2026-05-07 19:48 48.50517 15.70459 15091 ft 404 kts 97°
2026-05-07 19:48 48.50267 15.74665 14781 ft 402 kts 96°
2026-05-07 19:48 48.50020 15.78849 14477 ft 400 kts 96°
2026-05-07 19:49 48.49776 15.83013 14177 ft 397 kts 96°
2026-05-07 19:49 48.49532 15.87144 13880 ft 395 kts 96°
2026-05-07 19:49 48.49285 15.91256 13586 ft 392 kts 96°
2026-05-07 19:49 48.49039 15.95339 13297 ft 390 kts 96°
2026-05-07 19:50 48.48794 15.99400 13007 ft 389 kts 96°
2026-05-07 19:50 48.48520 16.03442 12716 ft 386 kts 100°
2026-05-07 19:50 48.47667 16.07238 12420 ft 383 kts 118°
2026-05-07 19:50 48.46097 16.10393 12139 ft 369 kts 137°
2026-05-07 19:51 48.44078 16.12576 11868 ft 349 kts 153°
2026-05-07 19:51 48.41921 16.14054 11597 ft 332 kts 156°
2026-05-07 19:51 48.39851 16.15416 11344 ft 317 kts 157°
2026-05-07 19:51 48.37868 16.16701 11125 ft 305 kts 156°
2026-05-07 19:52 48.35967 16.17957 10891 ft 291 kts 156°
2026-05-07 19:52 48.34155 16.19154 10686 ft 280 kts 157°
2026-05-07 19:52 48.32414 16.20314 10499 ft 267 kts 153°
2026-05-07 19:52 48.31030 16.22051 10318 ft 259 kts 126°
2026-05-07 19:53 48.30323 16.24496 10150 ft 257 kts 98°
2026-05-07 19:53 48.30416 16.27142 9998 ft 255 kts 74°
2026-05-07 19:53 48.30901 16.29706 9839 ft 256 kts 74°
2026-05-07 19:53 48.31437 16.32248 9648 ft 254 kts 64°
2026-05-07 19:54 48.32129 16.33644 9513 ft 253 kts 41°
2026-05-07 19:54 48.33619 16.34930 9342 ft 251 kts 12°
2026-05-07 19:54 48.35346 16.34954 9174 ft 249 kts 345°
2026-05-07 19:54 48.37009 16.34230 9026 ft 249 kts 344°
2026-05-07 19:55 48.38679 16.33530 8820 ft 249 kts 344°
2026-05-07 19:55 48.40254 16.32859 8656 ft 248 kts 343°
2026-05-07 19:55 48.41971 16.32120 8460 ft 247 kts 343°
2026-05-07 19:55 48.43616 16.31414 8283 ft 246 kts 343°
2026-05-07 19:56 48.45256 16.30713 8095 ft 245 kts 343°
2026-05-07 19:56 48.46896 16.30029 7917 ft 244 kts 347°
2026-05-07 19:56 48.48545 16.30181 7748 ft 236 kts 17°
2026-05-07 19:56 48.49889 16.31434 7567 ft 225 kts 45°
2026-05-07 19:57 48.50660 16.33425 7404 ft 220 kts 71°
2026-05-07 19:57 48.51081 16.35630 7266 ft 218 kts 74°
2026-05-07 19:57 48.51455 16.37845 7107 ft 218 kts 81°
2026-05-07 19:57 48.51167 16.40023 6896 ft 211 kts 118°
2026-05-07 19:58 48.50197 16.41525 6726 ft 206 kts 151°
2026-05-07 19:58 48.48849 16.42227 6620 ft 202 kts 165°
2026-05-07 19:58 48.47475 16.42792 6499 ft 202 kts 165°
2026-05-07 19:58 48.46146 16.43345 6361 ft 201 kts 165°
2026-05-07 19:59 48.44851 16.43898 6231 ft 201 kts 165°
2026-05-07 19:59 48.43478 16.44485 6080 ft 199 kts 165°
2026-05-07 19:59 48.42143 16.45040 5948 ft 199 kts 165°
2026-05-07 19:59 48.40808 16.45590 5800 ft 199 kts 165°
2026-05-07 20:00 48.39480 16.46141 5651 ft 198 kts 165°
2026-05-07 20:00 48.38152 16.46694 5504 ft 198 kts 165°
2026-05-07 20:00 48.36829 16.47240 5357 ft 197 kts 165°
2026-05-07 20:00 48.35515 16.47797 5256 ft 194 kts 165°
2026-05-07 20:01 48.34208 16.48354 5061 ft 198 kts 165°
2026-05-07 20:01 48.32908 16.48907 4820 ft 194 kts 165°
2026-05-07 20:01 48.31625 16.49453 4556 ft 190 kts 165°
2026-05-07 20:01 48.30364 16.49990 4297 ft 187 kts 165°
2026-05-07 20:02 48.29124 16.50518 4051 ft 183 kts 165°
2026-05-07 20:02 48.27941 16.51022 3806 ft 170 kts 166°
2026-05-07 20:02 48.26866 16.51481 3585 ft 154 kts 165°
2026-05-07 20:02 48.25850 16.51914 3396 ft 154 kts 166°
2026-05-07 20:03 48.24816 16.52354 3195 ft 154 kts 165°
2026-05-07 20:03 48.23788 16.52792 2993 ft 154 kts 166°
2026-05-07 20:03 48.22760 16.53228 2784 ft 153 kts 166°
2026-05-07 20:03 48.21739 16.53665 2588 ft 152 kts 166°
2026-05-07 20:04 48.20732 16.54093 2391 ft 149 kts 167°
2026-05-07 20:04 48.19750 16.54513 2195 ft 144 kts 168°
2026-05-07 20:04 48.18821 16.54911 2005 ft 140 kts 168°
2026-05-07 20:04 48.17894 16.55301 1826 ft 138 kts 171°
2026-05-07 20:05 48.16990 16.55702 1653 ft 136 kts 169°
2026-05-07 20:05 48.16080 16.56087 1444 ft 136 kts 171°
2026-05-07 20:05 48.15171 16.56453 1248 ft 136 kts 170°
2026-05-07 20:05 48.14276 16.56864 1111 ft 135 kts 169°
2026-05-07 20:06 48.13375 16.57245 967 ft 136 kts 171°
2026-05-07 20:06 48.12456 16.57619 763 ft 137 kts 168°
2026-05-07 20:06 48.11554 16.58001 620 ft 124 kts 166°
2026-05-07 20:06 48.10908 16.58271 625 ft 71 kts 163°
2026-05-07 20:07 48.10574 16.58404 626 ft 31 kts 165°
2026-05-07 20:07 48.10416 16.58463 626 ft 22 kts 171°
2026-05-07 20:07 48.10283 16.58453 621 ft 30 kts 190°
2026-05-07 20:07 48.10126 16.58361 627 ft 20 kts 232°
2026-05-07 20:08 48.10107 16.58210 615 ft 14 kts 300°
2026-05-07 20:08 48.10177 16.58162 628 ft 4 kts 343°
2026-05-07 20:08 48.10178 16.58162 615 ft 0 kts 342°
2026-05-07 20:10 48.10191 16.58156 615 ft 9 kts 342°
2026-05-07 20:10 48.10333 16.58096 629 ft 30 kts 344°
2026-05-07 20:10 48.10531 16.58012 620 ft 29 kts 343°
2026-05-07 20:10 48.10717 16.57933 629 ft 26 kts 344°
2026-05-07 20:11 48.10883 16.57864 628 ft 24 kts 344°
2026-05-07 20:11 48.11030 16.57801 624 ft 21 kts 344°
2026-05-07 20:11 48.11099 16.57772 615 ft 15 kts 344°
2026-05-07 20:11 48.11135 16.57757 627 ft 15 kts 343°
2026-05-07 20:12 48.11227 16.57717 625 ft 17 kts 344°
2026-05-07 20:12 48.11426 16.57633 620 ft 29 kts 343°
2026-05-07 20:12 48.11572 16.57571 619 ft 21 kts 345°
2026-05-07 20:12 48.11701 16.57520 615 ft 18 kts 343°
2026-05-07 20:13 48.11792 16.57463 629 ft 9 kts 309°
2026-05-07 20:13 48.11806 16.57391 628 ft 7 kts 279°
2026-05-07 20:13 48.11825 16.57308 615 ft 12 kts 292°
2026-05-07 20:13 48.11870 16.57165 626 ft 18 kts 296°
2026-05-07 20:14 48.11912 16.57040 627 ft 0 kts 297°
2026-05-07 20:14 48.11912 16.57039 615 ft 1 kts 297°
2026-05-07 20:15 48.11915 16.57017 618 ft 2 kts 274°
2026-05-07 20:15 48.11908 16.56993 627 ft 4 kts 241°
2026-05-07 20:15 48.11877 16.56955 617 ft 6 kts 210°
2026-05-07 20:15 48.11859 16.56942 622 ft 0 kts 206°
2026-05-07 20:18 48.11860 16.56942 615 ft 0 kts 206°